Temperature
15 15 16 16 16 16 16 17 17 17 17 18 18 18 18 18 18 18 18 18 18 18 18 18 18 18 18 18 18 18 18 18 18 18 18 18 18 18 18 18 18 17 18
15 15 15 15 16 16 16 16 16 17 17 17 17 18 18 18 18 18 18 18 18 18 18 18 18 18 18 18 18 18 18 18 18 18 18 18 18 18 18 17 17 17 17
15 15 15 15 15 15 16 16 16 16 17 17 17 17 17 18 18 18 18 18 18 18 18 18 18 18 18 18 18 18 18 18 18 18 18 18 18 18 18 18 17 17 17
14 14 14 15 15 15 15 15 16 16 16 17 17 17 17 17 17 18 18 18 18 18 18 18 18 18 18 18 18 18 18 18 18 18 18 18 18 18 18 18 17 17 17
14 14 14 14 14 15 15 15 15 15 16 16 17 17 17 17 17 17 18 18 18 18 18 18 18 18 18 18 18 18 18 18 18 18 18 18 18 18 18 18 17 17 17
14 14 14 14 14 14 14 15 15 15 15 16 16 16 17 17 17 17 17 18 18 18 18 18 18 18 18 18 18 18 18 18 18 18 18 17 17 17 17 17 17 17 17
13 13 14 14 14 14 14 14 14 15 15 15 15 16 16 17 17 17 17 18 18 18 18 18 18 18 18 18 18 18 18 18 18 17 17 17 17 17 17 17 17 17 17
13 13 13 13 14 14 14 14 14 14 15 15 15 15 15 16 17 17 17 17 17 18 18 18 18 18 18 18 18 18 18 18 18 18 17 17 17 17 17 17 17 17 17
13 13 13 13 13 13 13 14 14 14 14 14 14 14 15 16 16 17 17 17 17 17 17 18 18 18 18 18 18 18 18 18 18 17 17 17 17 17 17 17 17 17 17
12 12 13 13 13 13 13 13 13 14 14 14 14 14 14 15 15 16 17 17 17 17 17 17 18 17 17 18 18 18 18 18 18 17 17 17 17 17 17 17 17 17 16
12 12 12 13 13 13 13 13 13 13 13 14 14 14 14 14 15 15 15 16 16 17 17 17 17 17 17 17 18 18 18 17 17 17 17 17 17 17 17 17 17 16 16
12 12 12 12 12 13 13 13 13 13 13 13 14 14 14 14 14 15 15 15 16 16 16 17 17 17 17 17 17 18 17 17 17 17 17 17 17 17 17 17 17 16 16
12 12 12 12 12 12 13 13 13 13 13 13 13 14 14 14 14 14 14 15 15 16 16 16 16 17 17 17 17 17 17 17 17 17 17 17 17 17 17 17 16 16 16
12 12 12 12 12 12 12 13 13 13 13 13 13 13 14 14 14 14 14 14 14 15 15 16 16 16 16 17 17 17 17 17 17 17 17 17 17 17 16 16 16 16 16
12 12 12 12 12 12 12 12 13 13 13 13 13 13 13 14 14 14 14 14 14 14 14 15 16 16 16 16 16 16 17 17 17 17 17 17 17 16 16 16 16 16 16
12 12 12 12 12 12 12 12 13 13 13 13 13 13 13 14 14 14 14 14 14 14 14 15 15 15 15 16 16 16 16 16 16 16 16 16 16 16 16 16 16 16 16
12 12 12 12 12 12 12 12 12 12 13 13 13 13 13 13 13 13 13 14 14 14 14 14 15 15 15 15 15 15 16 16 16 16 16 16 16 16 16 16 16 16 16
12 12 12 12 12 12 12 12 12 12 12 13 13 13 13 13 13 13 13 13 13 14 14 14 14 15 15 15 15 15 15 15 15 16 16 16 16 16 16 16 16 15 15
12 12 12 12 12 12 12 12 12 12 12 12 13 13 12 13 13 13 13 13 13 13 13 14 14 14 14 14 14 15 15 15 15 15 15 15 15 15 15 15 15 15 15
12 12 12 12 12 12 12 12 12 12 12 12 12 12 12 12 12 13 13 13 13 13 13 13 13 14 14 14 14 14 14 14 14 14 15 15 15 15 15 15 15 15 15
12 12 12 12 12 12 12 12 12 12 12 12 12 12 12 12 12 12 13 13 13 13 13 13 13 13 14 14 14 14 14 14 14 14 14 14 14 14 14 15 15 14 14
12 12 12 12 12 12 12 12 12 12 12 12 12 12 12 12 12 12 12 12 12 13 13 13 13 13 14 14 14 14 14 14 14 14 14 14 14 14 14 14 14 14 14
12 12 12 12 12 12 12 12 12 12 12 12 12 12 12 12 12 12 12 12 12 12 12 13 13 13 13 14 13 13 13 13 14 14 13 13 13 14 14 14 14 14 14
12 12 12 12 12 12 12 12 12 12 12 12 12 12 12 12 12 12 12 12 12 12 12 12 13 13 13 13 13 13 13 13 13 13 13 13 13 13 13 13 13 13 13
13 13 12 12 12 12 12 12 12 12 12 12 12 12 11 12 11 11 12 12 12 12 12 12 12 13 13 13 13 13 13 13 13 13 13 13 13 13 13 13 13 13 13
13 13 13 13 12 12 12 12 12 12 12 12 12 12 12 12 12 11 11 12 12 12 12 12 12 12 12 13 13 13 13 12 12 12 13 12 12 12 12 12 12 12 12
Wind_Speed
3 3 3 3 4 4 3 3 3 4 5 5 5 5 5 6 7 9 10 16 18 18 16 15 15 14 13 12 12 12 12 12 12 13 13 13 13 12 12 12 12 11 11
2 3 3 4 3 4 4 3 4 4 4 4 5 4 5 5 7 8 9 13 18 19 18 16 16 15 14 13 13 13 13 13 13 13 14 13 13 13 13 13 12 11 11
2 2 2 3 3 4 4 3 4 3 3 3 4 4 4 4 4 6 8 9 12 17 18 18 17 16 15 15 14 14 14 14 14 14 14 14 14 14 13 13 12 12 10
3 2 2 3 3 3 2 3 3 3 3 3 3 3 3 3 4 5 6 8 9 11 15 18 18 18 17 16 15 15 15 15 15 15 15 15 14 14 14 13 13 12 11
5 2 2 3 2 1 2 3 2 3 3 3 3 3 3 3 4 5 5 6 9 10 12 16 19 19 18 17 17 16 16 16 16 16 15 15 15 15 14 14 13 13 12
5 3 2 3 2 1 1 2 2 2 3 3 3 3 3 3 3 4 6 5 7 10 12 12 13 16 19 19 18 18 18 17 17 17 17 16 16 16 15 15 14 13 12
5 3 3 3 2 1 2 2 2 2 2 2 1 2 3 3 4 4 4 5 6 8 10 11 12 12 13 18 19 19 19 19 19 18 18 18 17 17 16 15 14 14 13
5 3 3 2 2 1 2 1 1 1 1 2 2 1 2 2 3 4 3 5 6 5 7 10 10 12 12 13 16 20 20 20 20 19 19 18 18 18 17 16 15 15 14
5 4 3 2 2 1 1 2 1 2 2 2 2 3 2 3 2 2 3 3 4 4 6 5 9 11 13 13 14 18 20 21 21 21 20 19 19 19 18 17 17 16 15
5 4 4 3 2 1 2 2 1 2 2 2 2 3 3 2 2 2 2 2 3 4 5 6 7 9 13 13 14 17 21 21 22 22 21 21 20 20 19 18 18 17 16
5 5 4 3 2 2 2 2 2 2 2 3 3 2 2 2 2 2 2 2 2 3 4 5 5 6 11 13 13 16 20 22 23 23 22 22 21 21 20 20 19 18 17
4 5 4 3 3 2 3 3 3 3 2 3 3 3 3 2 3 3 3 2 3 3 3 4 4 5 8 12 15 18 21 23 23 23 22 22 22 21 20 20 19 19 18
4 5 5 4 3 3 3 3 3 3 2 3 3 3 3 4 3 3 3 2 2 2 2 3 4 4 6 9 12 17 20 22 23 23 22 21 21 21 20 20 20 19 18
4 5 5 4 4 3 3 2 2 3 2 2 3 3 3 3 3 4 3 3 2 2 2 4 2 4 4 6 10 13 14 20 22 22 22 21 20 20 21 20 20 19 19
4 5 5 5 4 3 3 2 2 3 2 2 2 2 2 3 3 4 3 4 4 3 3 3 3 3 4 5 8 10 10 15 20 21 22 22 20 20 20 20 20 19 19
5 6 6 6 5 4 4 3 2 3 2 2 2 2 2 2 2 2 3 4 4 4 4 3 3 3 3 4 8 9 10 13 17 19 20 21 21 20 20 19 19 18 17
5 6 6 6 6 5 5 4 4 4 3 3 3 2 2 2 2 2 2 3 4 4 5 4 2 3 3 4 3 5 7 7 10 15 18 19 19 20 19 19 18 18 17
5 5 5 6 6 6 5 5 5 5 4 4 3 2 3 2 2 2 2 3 3 4 5 5 3 3 4 4 4 5 4 6 7 11 15 17 18 18 18 18 18 18 17
5 5 5 5 5 5 5 5 4 4 4 3 3 2 2 2 2 2 2 3 3 3 3 4 4 3 3 3 3 3 4 4 5 8 12 14 16 17 17 18 18 18 17
4 4 4 4 4 4 4 5 5 5 5 4 4 3 2 2 2 3 3 2 2 3 3 3 3 2 3 3 3 4 4 3 4 5 6 9 12 15 15 16 17 17 17
4 3 4 5 5 4 3 4 4 5 5 5 5 4 3 3 3 2 2 2 2 2 2 3 3 2 3 3 4 3 4 3 3 3 4 4 5 6 8 12 15 16 16
4 3 4 4 5 4 6 6 5 4 4 4 5 5 5 4 5 5 4 2 2 3 3 3 3 4 4 4 4 4 4 3 3 3 4 4 4 5 5 7 11 14 15
3 3 4 4 4 6 7 7 6 4 3 3 3 4 4 4 5 4 5 5 3 4 4 4 4 5 5 5 5 5 5 4 4 4 4 4 4 5 4 7 11 12 13
3 3 4 4 4 6 7 6 6 4 3 4 3 3 3 4 4 4 4 4 4 4 4 3 4 5 5 5 6 6 5 3 1 2 3 3 3 3 3 4 9 11 12
3 4 4 5 5 6 7 6 4 2 3 4 4 4 4 4 6 5 4 4 4 5 4 3 3 4 5 5 5 4 4 4 2 3 3 3 3 2 2 3 5 10 12
4 5 5 5 5 6 7 6 3 1 2 3 4 5 6 6 6 5 3 3 4 5 4 4 3 3 1 2 5 5 6 5 3 3 4 4 3 3 2 2 3 5 8
Wind_Direction
262 256 258 255 250 242 233 231 233 233 230 226 225 226 225 230 231 228 225 218 207 200 195 189 184 183 182 178 177 175 172 169 165 161 159 156 153 152 151 149 146 144 143
264 258 258 256 251 241 236 232 229 234 231 224 228 223 223 227 231 222 218 214 207 201 197 193 189 186 186 183 181 179 177 175 171 168 165 162 160 159 157 155 152 149 146
297 273 269 265 257 247 236 238 242 235 241 239 233 227 225 218 216 213 209 208 210 207 202 198 194 191 190 189 186 184 182 180 179 176 172 169 167 165 163 162 160 159 157
335 321 292 278 274 260 234 235 232 235 245 242 239 242 234 216 216 211 203 203 208 211 210 205 198 195 195 194 192 188 186 184 183 181 178 176 173 172 172 171 170 168 166
345 335 304 292 293 257 240 252 225 217 230 241 241 240 238 226 216 215 207 205 208 212 210 212 206 198 197 198 197 194 191 188 188 186 183 181 180 180 180 179 178 177 176
341 341 311 310 311 285 253 248 238 224 222 225 253 260 250 238 223 214 210 203 210 215 211 209 207 206 203 200 200 199 195 193 192 192 190 188 187 187 187 187 186 185 184
339 334 326 316 319 290 269 259 236 235 234 193 187 288 276 246 231 223 210 198 210 215 208 205 202 202 206 207 204 202 200 198 197 197 195 193 192 193 192 192 193 193 193
334 335 332 319 310 303 320 307 256 234 232 175 159 178 288 302 263 232 209 207 212 208 207 209 203 202 202 202 209 207 204 201 200 200 200 198 197 197 198 198 199 199 200
328 327 317 319 317 317 293 280 248 203 230 229 188 176 187 230 283 285 223 214 204 203 206 199 203 206 205 203 205 210 208 205 204 204 203 203 201 201 202 203 204 205 205
331 329 322 319 319 313 296 285 263 221 202 224 235 219 210 191 207 301 308 248 213 210 211 212 206 206 206 205 206 208 209 207 206 207 207 207 206 205 205 206 208 208 209
332 334 330 330 320 308 295 289 285 254 212 207 211 214 219 218 209 209 265 282 265 229 212 206 205 206 206 204 206 209 210 210 209 210 210 210 209 209 209 209 211 211 212
330 334 329 333 320 308 304 293 277 263 241 229 222 210 196 201 207 202 231 253 258 255 230 211 208 210 208 205 209 209 210 211 209 210 212 211 210 210 211 211 212 213 214
325 324 329 319 312 302 298 302 296 282 256 244 232 223 210 212 205 195 209 234 249 264 248 233 215 208 211 206 212 212 210 208 208 209 211 212 211 211 211 213 214 215 215
307 314 322 323 322 323 323 320 309 294 276 258 252 231 222 223 207 200 197 198 242 266 253 244 231 214 211 204 212 212 213 208 208 207 208 210 211 211 211 213 214 216 217
328 335 339 342 342 342 337 339 326 309 307 283 265 247 235 235 221 211 202 196 198 233 254 237 223 218 208 207 208 205 206 208 210 210 208 208 210 211 212 213 214 216 216
349 354 359 359 359 0 356 359 341 325 334 317 290 274 263 253 246 220 209 212 208 212 237 241 225 217 207 206 201 198 204 206 212 213 212 210 208 209 210 212 213 212 212
356 5 6 11 13 11 8 13 359 359 354 335 336 329 301 282 260 239 223 220 221 212 236 255 232 217 206 203 196 200 204 201 208 214 214 210 207 206 206 208 209 209 209
359 6 14 19 17 13 11 13 3 360 356 343 333 335 315 309 288 273 249 240 233 223 222 243 240 217 216 208 195 195 203 203 202 212 214 212 209 208 207 207 207 208 209
359 7 15 15 10 6 6 5 1 353 348 334 324 316 304 312 298 282 271 252 242 239 222 226 240 224 218 200 187 197 203 203 203 210 211 214 213 211 210 208 206 206 208
355 355 356 355 354 357 359 356 356 354 352 348 342 328 308 304 283 278 274 265 251 241 232 231 233 227 218 202 182 195 204 204 205 206 205 207 211 211 211 210 207 205 206
346 340 344 345 344 345 346 350 349 352 354 354 351 345 325 319 311 302 274 260 251 242 236 232 231 225 216 198 202 192 199 196 206 197 190 199 199 206 209 210 209 207 205
336 337 336 335 338 337 342 348 351 348 346 349 343 337 335 341 348 346 329 292 249 233 231 227 230 230 232 215 200 192 185 184 212 193 182 200 192 201 205 204 207 204 204
316 316 316 325 321 316 328 339 348 354 346 340 339 338 341 348 353 342 341 345 322 289 249 228 229 233 232 216 197 197 195 190 202 185 171 201 193 206 202 201 198 198 200
287 291 296 304 307 311 322 331 341 357 349 345 344 339 332 328 335 343 345 344 334 322 300 264 238 245 241 221 204 199 191 179 167 176 165 193 192 202 189 193 196 196 197
279 278 281 289 293 301 312 319 332 348 346 341 338 342 344 337 337 354 359 340 327 322 310 297 273 265 255 229 195 168 168 172 200 202 180 178 178 178 189 201 195 196 197
263 281 287 283 275 282 294 303 311 341 333 328 331 335 343 344 340 348 346 333 325 317 319 323 327 329 304 236 202 192 187 186 180 203 189 176 173 164 193 208 195 197 201
Height
1510 1510 1510 1511 1511 1512 1512 1513 1515 1516 1517 1518 1519 1521 1522 1524 1525 1527 1528 1529 1530 1531 1532 1533 1534 1535 1535 1537 1538 1539 1540 1542 1544 1545 1547 1548 1549 1551 1552 1553 1554 1555 1556
1507 1507 1507 1507 1507 1508 1509 1510 1511 1512 1513 1515 1516 1517 1519 1521 1522 1524 1525 1527 1528 1529 1531 1532 1532 1533 1534 1536 1537 1538 1540 1541 1543 1545 1546 1548 1549 1550 1552 1553 1554 1555 1556
1504 1504 1503 1503 1503 1504 1505 1506 1507 1508 1509 1511 1512 1514 1516 1518 1519 1521 1523 1524 1526 1527 1529 1530 1531 1532 1533 1534 1536 1537 1539 1540 1542 1544 1546 1547 1549 1550 1551 1553 1554 1555 1556
1501 1501 1500 1500 1500 1500 1501 1502 1503 1504 1505 1507 1508 1510 1512 1514 1515 1517 1519 1521 1523 1525 1527 1528 1529 1530 1531 1533 1534 1536 1537 1539 1541 1543 1544 1546 1548 1549 1551 1552 1553 1555 1556
1498 1497 1497 1497 1497 1497 1498 1499 1500 1501 1502 1503 1505 1506 1509 1510 1512 1514 1516 1518 1520 1522 1524 1526 1527 1528 1529 1531 1532 1534 1536 1538 1539 1541 1543 1545 1547 1548 1550 1551 1552 1554 1555
1496 1495 1494 1494 1494 1494 1495 1495 1496 1497 1499 1500 1501 1503 1504 1506 1508 1510 1512 1514 1516 1519 1521 1523 1524 1526 1527 1529 1530 1532 1534 1536 1538 1539 1541 1543 1545 1547 1548 1550 1551 1552 1553
1493 1492 1492 1491 1491 1491 1492 1492 1493 1494 1495 1497 1498 1499 1501 1503 1504 1506 1508 1510 1512 1515 1517 1520 1521 1523 1524 1526 1528 1530 1531 1533 1535 1537 1539 1541 1543 1545 1547 1548 1549 1551 1552
1491 1490 1490 1489 1489 1489 1489 1490 1490 1491 1492 1494 1495 1496 1498 1500 1500 1502 1504 1506 1508 1511 1513 1515 1518 1520 1522 1523 1525 1527 1529 1531 1533 1535 1537 1539 1541 1542 1544 1546 1547 1549 1550
1490 1489 1488 1487 1487 1487 1487 1487 1488 1488 1489 1491 1492 1495 1495 1495 1496 1498 1499 1501 1504 1506 1509 1511 1513 1516 1518 1520 1522 1524 1526 1528 1530 1532 1534 1536 1538 1540 1542 1543 1545 1546 1548
1489 1488 1487 1486 1485 1485 1485 1485 1485 1486 1487 1488 1489 1491 1493 1494 1495 1494 1496 1497 1500 1502 1504 1507 1509 1511 1514 1516 1518 1520 1522 1524 1526 1528 1531 1533 1535 1537 1539 1541 1542 1544 1545
1488 1487 1485 1485 1484 1483 1483 1483 1483 1483 1484 1485 1486 1488 1489 1491 1492 1493 1492 1494 1496 1498 1500 1502 1505 1507 1509 1512 1514 1517 1519 1521 1523 1525 1527 1529 1532 1534 1536 1537 1539 1541 1542
1487 1486 1485 1483 1482 1482 1481 1481 1481 1481 1482 1482 1483 1484 1486 1487 1488 1490 1490 1491 1492 1494 1496 1498 1500 1502 1505 1507 1510 1513 1515 1517 1519 1521 1523 1526 1528 1530 1532 1534 1536 1537 1539
1486 1485 1484 1482 1481 1480 1480 1479 1479 1479 1479 1480 1480 1481 1482 1484 1485 1487 1488 1488 1489 1490 1492 1494 1495 1498 1500 1502 1505 1508 1511 1513 1515 1517 1519 1521 1524 1526 1528 1530 1532 1534 1535
1486 1484 1483 1481 1480 1479 1478 1478 1477 1477 1477 1477 1478 1478 1479 1480 1482 1483 1484 1486 1486 1487 1488 1489 1491 1493 1495 1498 1500 1503 1506 1508 1511 1513 1515 1517 1519 1522 1524 1526 1528 1529 1531
1486 1484 1482 1480 1479 1478 1477 1476 1476 1475 1475 1475 1475 1476 1476 1477 1478 1479 1481 1482 1484 1483 1484 1485 1487 1488 1490 1493 1495 1497 1500 1503 1506 1508 1510 1512 1515 1517 1519 1521 1523 1525 1527
1486 1484 1482 1480 1479 1477 1476 1475 1475 1474 1473 1473 1473 1473 1473 1474 1474 1475 1477 1478 1479 1480 1480 1481 1483 1485 1487 1489 1491 1493 1495 1498 1501 1503 1506 1508 1510 1512 1514 1517 1519 1521 1522
1486 1484 1482 1480 1479 1477 1476 1475 1474 1473 1472 1471 1471 1471 1471 1471 1472 1472 1473 1474 1475 1476 1476 1477 1479 1480 1482 1484 1486 1487 1489 1492 1495 1498 1500 1503 1505 1507 1509 1512 1514 1516 1518
1487 1485 1483 1481 1479 1477 1476 1474 1473 1472 1471 1470 1470 1470 1469 1469 1469 1470 1470 1471 1471 1472 1473 1473 1474 1476 1478 1480 1481 1483 1484 1486 1489 1491 1494 1497 1500 1502 1504 1507 1509 1511 1513
1488 1486 1483 1481 1479 1477 1476 1474 1473 1471 1470 1469 1469 1468 1468 1468 1467 1467 1468 1468 1468 1468 1469 1469 1470 1472 1473 1475 1477 1479 1481 1482 1484 1486 1489 1491 1494 1497 1499 1501 1503 1506 1507
1489 1486 1484 1482 1480 1478 1476 1475 1473 1471 1470 1469 1468 1467 1467 1466 1466 1465 1465 1465 1465 1465 1466 1466 1466 1468 1469 1471 1473 1475 1476 1478 1479 1481 1484 1486 1488 1491 1493 1495 1498 1500 1502
1489 1487 1485 1483 1481 1479 1477 1475 1473 1472 1470 1469 1468 1467 1466 1465 1464 1463 1463 1462 1462 1462 1462 1463 1463 1464 1466 1467 1469 1471 1472 1474 1475 1477 1478 1481 1483 1485 1487 1489 1491 1494 1496
1489 1487 1485 1483 1481 1479 1478 1476 1474 1472 1470 1468 1467 1466 1465 1464 1463 1461 1461 1460 1460 1460 1459 1460 1460 1461 1462 1464 1465 1467 1468 1469 1471 1473 1474 1476 1477 1479 1481 1484 1486 1488 1490
1489 1487 1485 1483 1481 1480 1478 1476 1474 1472 1470 1468 1467 1465 1464 1463 1461 1460 1459 1459 1458 1458 1458 1457 1457 1458 1459 1460 1461 1463 1464 1465 1466 1468 1470 1471 1473 1474 1476 1479 1481 1482 1484
1489 1487 1485 1484 1482 1480 1478 1476 1474 1472 1470 1468 1467 1465 1463 1462 1460 1459 1458 1457 1456 1455 1455 1454 1455 1455 1455 1456 1457 1459 1460 1461 1463 1464 1466 1467 1468 1470 1471 1473 1475 1477 1479
1489 1487 1485 1484 1482 1480 1478 1476 1474 1472 1470 1468 1466 1465 1463 1461 1460 1458 1457 1456 1455 1454 1453 1452 1452 1451 1452 1452 1453 1455 1456 1457 1458 1460 1461 1463 1464 1465 1467 1469 1471 1473 1474
1489 1487 1485 1483 1481 1479 1478 1476 1474 1472 1470 1468 1466 1464 1463 1461 1459 1458 1456 1455 1453 1452 1451 1450 1450 1449 1449 1449 1450 1451 1453 1454 1455 1456 1457 1459 1460 1461 1463 1464 1466 1467 1469